• In Belarus
  • List of Countries
  • For 7 days
  • Water Temperature
  • Satellite Maps
  • Weather Map
  • Weather Widgets
  • user-avatar
    Login

    Hourly Weather Prutz

    Today, 22 February, Friday

    Time Temperature Precipitation Wind Pressure Humidity
    00:00 -3°C° 0 mm 2 mps 637 mmHg 90%
    01:00 -1°C° 0 mm 2 mps 638 mmHg 92%
    02:00 -1°C° 0 mm 2 mps 638 mmHg 93%
    03:00 -1°C° 0 mm 2 mps 638 mmHg 93%
    04:00 -1°C° 0 mm 2 mps 638 mmHg 94%
    05:00 -1°C° 0.1 mm 2 mps 638 mmHg 94%
    06:00 +1°C° 0.1 mm 2 mps 638 mmHg 94%
    07:00 +1°C° 0.1 mm 2 mps 638 mmHg 94%
    08:00 +1°C° 0.3 mm 2 mps 639 mmHg 95%
    09:00 +1°C° 0.3 mm 3 mps 639 mmHg 95%
    10:00 +1°C° 0.3 mm 3 mps 639 mmHg 96%
    11:00 +1°C° 0.2 mm 3 mps 639 mmHg 97%
    12:00 +1°C° 0.2 mm 3 mps 639 mmHg 98%
    13:00 +1°C° 0.2 mm 3 mps 639 mmHg 98%
    14:00 +1°C° 0.1 mm 3 mps 639 mmHg 98%
    15:00 +1°C° 0.1 mm 3 mps 639 mmHg 97%
    16:00 +1°C° 0.1 mm 3 mps 639 mmHg 96%
    17:00 -1°C° 0 mm 3 mps 639 mmHg 96%
    18:00 -2°C° 0 mm 2 mps 639 mmHg 96%
    19:00 -3°C° 0 mm 2 mps 639 mmHg 96%
    20:00 -4°C° 0 mm 2 mps 639 mmHg 95%
    21:00 -3°C° 0 mm 1 mps 639 mmHg 94%
    22:00 -4°C° 0 mm 1 mps 639 mmHg 92%
    23:00 -4°C° 0 mm 1 mps 639 mmHg 89%

    Tomorrow, 23 February, Saturday

    Time Temperature Precipitation Wind Pressure Humidity
    00:00 -4°C° 0 mm 1 mps 639 mmHg 86%
    01:00 -6°C° 0 mm 1 mps 639 mmHg 83%
    02:00 -6°C° 0 mm 1 mps 639 mmHg 73%
    03:00 -7°C° 0 mm 2 mps 638 mmHg 63%
    04:00 -7°C° 0 mm 2 mps 638 mmHg 53%
    05:00 -7°C° 0 mm 2 mps 638 mmHg 47%
    06:00 -7°C° 0 mm 2 mps 639 mmHg 41%
    07:00 -7°C° 0 mm 2 mps 639 mmHg 34%
    08:00 -4°C° 0 mm 2 mps 640 mmHg 41%
    09:00 -2°C° 0 mm 2 mps 640 mmHg 48%
    10:00 +2°C° 0 mm 2 mps 641 mmHg 55%
    11:00 +2°C° 0 mm 2 mps 641 mmHg 61%
    12:00 +3°C° 0 mm 2 mps 641 mmHg 66%
    13:00 +2°C° 0 mm 3 mps 641 mmHg 72%
    14:00 +3°C° 0 mm 2 mps 641 mmHg 73%
    15:00 +3°C° 0 mm 2 mps 641 mmHg 74%
    16:00 +3°C° 0 mm 2 mps 641 mmHg 75%
    17:00 +1°C° 0 mm 2 mps 640 mmHg 69%
    18:00 -2°C° 0 mm 2 mps 640 mmHg 62%
    19:00 -4°C° 0 mm 2 mps 639 mmHg 56%
    20:00 -4°C° 0 mm 2 mps 640 mmHg 51%
    21:00 -2°C° 0 mm 1 mps 640 mmHg 45%
    22:00 -2°C° 0 mm 1 mps 640 mmHg 39%
    23:00 -1°C° 0 mm 1 mps 640 mmHg 39%

    Day after tomorrow, 24 February, Sunday

    Time Temperature Precipitation Wind Pressure Humidity
    00:00 -1°C° 0 mm 1 mps 640 mmHg 38%
    01:00 -1°C° 0 mm 1 mps 641 mmHg 37%
    02:00 -1°C° 0 mm 1 mps 640 mmHg 38%
    03:00 -1°C° 0 mm 1 mps 640 mmHg 38%
    04:00 -1°C° 0 mm 1 mps 640 mmHg 38%
    05:00 -1°C° 0 mm 1 mps 640 mmHg 40%
    06:00 -1°C° 0 mm 1 mps 640 mmHg 41%
    07:00 -1°C° 0 mm 1 mps 641 mmHg 42%
    08:00 +1°C° 0 mm 1 mps 641 mmHg 52%
    09:00 +3°C° 0 mm 1 mps 642 mmHg 62%
    10:00 +5°C° 0 mm 1 mps 643 mmHg 72%
    11:00 +6°C° 0 mm 1 mps 643 mmHg 78%
    12:00 +6°C° 0 mm 1 mps 643 mmHg 85%
    13:00 +5°C° 0 mm 2 mps 642 mmHg 91%
    14:00 +6°C° 0 mm 1 mps 642 mmHg 91%
    15:00 +6°C° 0 mm 1 mps 642 mmHg 90%
    16:00 +6°C° 0 mm 1 mps 642 mmHg 90%
    17:00 +4°C° 0 mm 1 mps 642 mmHg 83%
    18:00 +3°C° 0 mm 1 mps 642 mmHg 77%
    19:00 +1°C° 0 mm 1 mps 642 mmHg 71%
    20:00 +1°C° 0 mm 1 mps 642 mmHg 67%
    21:00 +1°C° 0 mm 1 mps 642 mmHg 62%
    22:00 -1°C° 0 mm 2 mps 642 mmHg 58%
    23:00 -1°C° 0 mm 2 mps 642 mmHg 57%

    25 February, Monday

    Time Temperature Precipitation Wind Pressure Humidity
    00:00 -1°C° 0 mm 2 mps 642 mmHg 56%
    01:00 -1°C° 0 mm 2 mps 642 mmHg 54%
    02:00 -1°C° 0 mm 2 mps 642 mmHg 52%
    03:00 -1°C° 0 mm 2 mps 642 mmHg 51%
    04:00 +1°C° 0 mm 1 mps 642 mmHg 49%
    05:00 +1°C° 0 mm 1 mps 642 mmHg 47%
    06:00 +1°C° 0 mm 1 mps 642 mmHg 46%
    07:00 +1°C° 0 mm 1 mps 642 mmHg 45%
    08:00 +3°C° 0 mm 1 mps 643 mmHg 53%
    09:00 +4°C° 0 mm 1 mps 643 mmHg 61%
    10:00 +6°C° 0 mm 1 mps 644 mmHg 69%
    11:00 +7°C° 0 mm 1 mps 644 mmHg 75%
    12:00 +7°C° 0 mm 1 mps 644 mmHg 81%
    13:00 +8°C° 0 mm 1 mps 643 mmHg 88%
    14:00 +7°C° 0 mm 1 mps 643 mmHg 88%
    15:00 +7°C° 0 mm 1 mps 643 mmHg 89%
    16:00 +7°C° 0 mm 1 mps 643 mmHg 89%
    17:00 +5°C° 0 mm 1 mps 642 mmHg 86%
    18:00 +4°C° 0 mm 1 mps 642 mmHg 83%
    19:00 +2°C° 0 mm 1 mps 642 mmHg 80%
    20:00 +2°C° 0 mm 1 mps 642 mmHg 73%
    21:00 +2°C° 0 mm 1 mps 642 mmHg 65%
    22:00 +1°C° 0 mm 1 mps 642 mmHg 58%
    23:00 +1°C° 0 mm 1 mps 642 mmHg 56%

    26 February, Tuesday

    Time Temperature Precipitation Wind Pressure Humidity
    00:00 +1°C° 0 mm 1 mps 642 mmHg 55%
    01:00 +1°C° 0 mm 1 mps 641 mmHg 53%
    02:00 +1°C° 0 mm 1 mps 641 mmHg 51%
    03:00 +1°C° 0 mm 1 mps 641 mmHg 49%
    04:00 +1°C° 0 mm 1 mps 641 mmHg 47%
    05:00 +1°C° 0 mm 1 mps 641 mmHg 44%
    06:00 +1°C° 0 mm 1 mps 641 mmHg 42%
    07:00 +1°C° 0 mm 1 mps 640 mmHg 39%
    08:00 +3°C° 0 mm 1 mps 641 mmHg 46%
    09:00 +5°C° 0 mm 1 mps 642 mmHg 53%
    10:00 +5°C° 0 mm 2 mps 642 mmHg 60%
    11:00 +6°C° 0 mm 2 mps 642 mmHg 64%
    12:00 +6°C° 0 mm 2 mps 642 mmHg 68%
    13:00 +7°C° 0 mm 2 mps 642 mmHg 71%
    14:00 +7°C° 0 mm 2 mps 641 mmHg 73%
    15:00 +6°C° 0 mm 2 mps 641 mmHg 74%
    16:00 +6°C° 0 mm 2 mps 641 mmHg 76%
    17:00 +4°C° 0 mm 2 mps 640 mmHg 71%
    18:00 +3°C° 0 mm 2 mps 640 mmHg 67%
    19:00 +2°C° 0 mm 1 mps 640 mmHg 62%
    20:00 +2°C° 0 mm 1 mps 640 mmHg 58%
    21:00 +2°C° 0 mm 1 mps 640 mmHg 54%
    22:00 +2°C° 0 mm 1 mps 640 mmHg 50%
    23:00 +2°C° 0 mm 1 mps 640 mmHg 51%

    27 February, Wednesday

    Time Temperature Precipitation Wind Pressure Humidity
    00:00 +2°C° 0 mm 1 mps 640 mmHg 51%
    01:00 +2°C° 0 mm 1 mps 640 mmHg 52%
    02:00 +2°C° 0 mm 1 mps 639 mmHg 56%
    03:00 +2°C° 0 mm 1 mps 639 mmHg 61%
    04:00 +2°C° 0 mm 1 mps 639 mmHg 65%
    05:00 +2°C° 0 mm 1 mps 639 mmHg 69%
    06:00 +2°C° 0 mm 1 mps 639 mmHg 73%
    07:00 +2°C° 0 mm 1 mps 639 mmHg 77%
    08:00 +4°C° 0 mm 1 mps 639 mmHg 79%
    09:00 +5°C° 0 mm 1 mps 639 mmHg 81%
    10:00 +7°C° 0 mm 1 mps 640 mmHg 84%
    11:00 +7°C° 0 mm 1 mps 640 mmHg 84%
    12:00 +8°C° 0 mm 1 mps 639 mmHg 83%
    13:00 +9°C° 0 mm 1 mps 639 mmHg 83%
    14:00 +9°C° 0 mm 1 mps 639 mmHg 85%
    15:00 +9°C° 0 mm 1 mps 639 mmHg 86%
    16:00 +7°C° 0 mm 0 mps 638 mmHg 88%
    17:00 +7°C° 0 mm 1 mps 638 mmHg 86%
    18:00 +5°C° 0 mm 1 mps 638 mmHg 84%
    19:00 +4°C° 0 mm 1 mps 637 mmHg 82%
    20:00 +4°C° 0 mm 1 mps 637 mmHg 77%
    21:00 +4°C° 0 mm 1 mps 637 mmHg 71%
    22:00 +4°C° 0 mm 1 mps 637 mmHg 65%
    23:00 +4°C° 0 mm 1 mps 637 mmHg 62%
    Show more